This demonstration page uses our WeatherBlox Daily Observations layout. Learn more.

Left ArrowRight Arrow

38.20091, -84.87328

Hourly Observations for May 23, 2022

Temp ( °F °C ) Dew Point ( °F °C ) Humidity (%) Winds ( mph kmh ) Pressure ( in mb ) Visibility ( mi km ) Precip ( " mm )
12:53 am 00:53 Cloudy 62 16.7 50 10 65 65 N 6 9 30.24 1024 10 16 0.00 0.00
1:53 am 01:53 Cloudy 61 16.1 49 9.4 65 65 NNE 5 7 30.24 1024 10 16 0.00 0.00
2:53 am 02:53 Cloudy 61 16.1 49 9.4 65 65 NNE 8 13 30.23 1024 10 16 0.00 0.00
3:53 am 03:53 Mostly Cloudy 59 15 46 7.8 62 62 NNE 7 11 30.22 1023 10 16 0.00 0.00
4:53 am 04:53 Cloudy 58 14.4 43 6.1 58 58 N 6 9 30.21 1023 10 16 0.00 0.00
5:53 am 05:53 Cloudy 57 13.9 41 5 55 55 NNE 8 13 30.21 1023 10 16 0.00 0.00
6:53 am 06:53 Cloudy 56 13.3 40 4.4 55 55 N 8 13 30.22 1024 10 16 0.00 0.00
7:53 am 07:53 Cloudy 55 12.8 40 4.4 57 57 NNE 7 11 30.24 1024 10 16 0.00 0.00
8:53 am 08:53 Cloudy 55 12.8 41 5 59 59 NNE 9 15 30.24 1024 10 16 0.00 0.00
10:53 am 10:53 Cloudy with Light Rain 53 11.7 45 7.2 74 74 NNE 7 11 30.23 1024 4 6 0.00 0.00
11:31 am 11:31 Cloudy with Light Rain 52 11.1 47 8.3 83 83 N 5 7 30.23 1024 3 5 0.03 0.76
11:53 am 11:53 Cloudy with Light Rain 53 11.7 49 9.4 86 86 VRB 5 7 30.22 1023 10 16 0.03 0.76
12:53 pm 12:53 Cloudy 55 12.8 49 9.4 80 80 N 7 11 30.20 1023 10 16 0.00 0.00
1:53 pm 13:53 Cloudy 56 13.3 50 10 81 81 VRB 7 11 30.19 1022 10 16 0.00 0.00
2:43 pm 14:43 Cloudy with Light Rain 54 12.2 50 10 87 87 N 7 11 30.19 1022 9 14 0.01 0.25
2:53 pm 14:53 Cloudy with Light Rain 54 12.2 50 10 87 87 N 7 11 30.18 1022 7 11 0.01 0.25
3:15 pm 15:15 Cloudy with Rain 55 12.8 51 10.6 87 87 VRB 6 9 30.18 1022 2 3 0.05 1.27
3:22 pm 15:22 Cloudy with Light Rain 54 12.2 51 10.6 90 90 NNE 8 13 30.17 1022 3 5 0.05 1.27
3:53 pm 15:53 Cloudy 56 13.3 52 11.1 87 87 NNE 8 13 30.16 1022 7 11 0.06 1.52
4:04 pm 16:04 Cloudy 57 13.9 53 11.7 87 87 NNE 8 13 30.17 1022 9 14 0.00 0.00
4:11 pm 16:11 Cloudy 56 13.3 52 11.1 87 87 VRB 5 7 30.17 1022 9 14 0.00 0.00
4:19 pm 16:19 Cloudy 57 13.9 53 11.7 87 87 NNE 8 13 30.17 1022 10 16 0.00 0.00
4:53 pm 16:53 Cloudy with Light Rain 57 13.9 53 11.7 87 87 N 8 13 30.16 1021 5 8 0.00 0.00
5:53 pm 17:53 Cloudy 58 14.4 53 11.7 84 84 NNE 6 9 30.14 1021 10 16 0.00 0.00
6:53 pm 18:53 Cloudy 58 14.4 54 12.2 87 87 NNE 7 11 30.14 1021 10 16 0.00 0.00
7:53 pm 19:53 Cloudy with Light Rain 58 14.4 54 12.2 87 87 NNE 7 11 30.14 1021 10 16 0.00 0.00
8:53 pm 20:53 Cloudy 59 15 54 12.2 83 83 N 5 7 30.16 1021 10 16 0.01 0.25
9:53 pm 21:53 Mostly Cloudy 58 14.4 54 12.2 87 87 NE 3 6 30.16 1021 10 16 0.00 0.00
10:53 pm 22:53 Clear 57 13.9 53 11.7 87 87 NNE 3 6 30.16 1021 10 16 0.00 0.00
11:53 pm 23:53 Clear 57 13.9 53 11.7 87 87 NNE 3 6 30.15 1021 10 16 0.00 0.00

Powered by AerisWeather